Miscellaneous Local Product
Issued by NWS Hastings, NE

Home | Current Version | Previous Version | Graphics & Text | Print | Product List | Glossary On
Versions: 1 2 3 4 5 6 7 8 9 10 11 12 13 14 15 16 17 18 19 20 21 22 23 24 25 26 27 28 29 30 31 32 33 34 35 36 37 38 39 40 41 42 43 44 45 46 47 48 49 50
035
AXUS43 KGID 221002
MISGRI

GID CWA HOURLY WEATHER ROUNDUP
NATIONAL WEATHER SERVICE HASTINGS NE
500 AM CDT TUE AUG 22 2017

NOTE: "FAIR" INDICATES FEW OR NO CLOUDS BELOW 12,000 FEET WITH NO
SIGNIFICANT WEATHER AND/OR OBSTRUCTIONS TO VISIBILITY.

...SOUTH CENTRAL NEBRASKA...

CITY           SKY/WX    TMP DP  RH WIND       PRES   REMARKS
GRAND ISLAND   CLEAR     63  63 100 N9        30.11R
HASTINGS       CLEAR     64  61  90 N9        30.11R
KEARNEY        CLEAR     64  62  93 N13       30.13R
ORD            CLEAR     57  53  86 NW6       30.15R
YORK           CLEAR     63  63 100 CALM      30.09R
AURORA         CLEAR     62  62  99 N6        30.10R
LEXINGTON      CLEAR     64  60  89 N10       30.16R
HOLDREGE       CLEAR     63  61  94 N10       30.12S
HEBRON         PTCLDY    65  64  94 NE5       30.08R

...NEBRASKA PANHANDLE...

CITY           SKY/WX    TMP DP  RH WIND       PRES   REMARKS
CHADRON        CLEAR     47  43  86 CALM      30.23F
ALLIANCE       CLEAR     43  41  93 NW3       30.25S
SCOTTSBLUFF    CLEAR     54  46  74 SE5       30.27R
SIDNEY         CLEAR     49  46  90 CALM      30.29R

...WESTERN AND NORTH CENTRAL NEBRASKA...

CITY           SKY/WX    TMP DP  RH WIND       PRES   REMARKS
VALENTINE      CLEAR     52  46  80 W8        30.20R
AINSWORTH      CLEAR     53  50  90 W5        30.19S
ONEILL         CLEAR     55  53  95 NW3       30.16R
BROKEN BOW     CLEAR     57  54  89 N6        30.18R
IMPERIAL       CLEAR     58  56  93 N8        30.22S
NORTH PLATTE   CLEAR     56  55  97 CALM      30.21R
MCCOOK         CLEAR     62  62 100 NW8       30.17R

...EASTERN NEBRASKA...

CITY           SKY/WX    TMP DP  RH WIND       PRES   REMARKS
NORFOLK        CLEAR     60  57  89 N10       30.10R
SO SIOUX CITY  CLEAR     61  59  93 N12       30.06R
TEKAMAH        CLEAR     60  59  96 NW7       30.05R
COLUMBUS       CLEAR     63  60  90 N9        30.09R
ALBION         CLEAR     62  57  84 N10       30.12R
OMAHA EPPLEY   CLOUDY    65  62  90 NW3       30.05R
OFFUTT AFB     CLEAR     64  62  96 CALM      30.05R
MILLARD        FOG       65  64  97 CALM      30.06R VSB 1/2
LINCOLN        CLEAR     64  62  93 CALM      30.08R
NEBRASKA CITY  CLOUDY    65  65 100 CALM      30.07R FOG
BEATRICE       CLOUDY    65  65  98 CALM      30.08R
FALLS CITY     CLOUDY    66  65  96 NW6       30.04R

...NORTHERN KANSAS...

CITY           SKY/WX    TMP DP  RH WIND       PRES   REMARKS
GOODLAND       CLEAR     63  63 100 N10       30.20F
HILL CITY      CLEAR     67  64  90 N8        30.12R
NORTON         SUNNY     63  57  82 N8        30.12
PHILLIPSBURG   PTCLDY    66  61  82 N8        30.10R
SMITH CENTER   PTCLDY    64  63  94 N8        30.09R
HAYS           PTCLDY    68  65  90 N12       30.07R
RUSSELL        CLOUDY    69  64  84 N17G24    30.04R
CONCORDIA      CLOUDY    68  66  93 NE10      30.06R
SALINA         CLEAR     75  68  78 N8        29.97S
TOPEKA         CLOUDY    68  68 100 CALM      30.01R



USA.gov is the U.S. government's official web portal to all federal, state and local government web resources and services.